Tracking 27107 objects as of 21-Mar-2023
HD Live streaming from Space Station
objects crossing your sky now

STARLINK-4723

Track STARLINK-4723 now!
10-day predictions
STARLINK-4723 is classified as:


NORAD ID: 53797
Int'l Code: 2022-111AA
Perigee: 545.8 km
Apogee: 547.8 km
Inclination: 53.2 °
Period: 95.4 minutes
Semi major axis: 6917 km
RCS: Unknown
Launch date: September 11, 2022
Source: United States (US)
Launch site: AIR FORCE EASTERN TEST RANGE (AFETR)
Your satellite tracking list
Your tracking list is empty




NASA's NSSDC Master Catalog

Two Line Element Set (TLE):
1 53797U 22111AA  23080.34857605  .00020694  00000-0  13136-2 0  9996
2 53797  53.2176 101.4764 0001462  94.4758 265.6401 15.08865350 29196
Source of the keplerian elements: AFSPC